Voltar ao catálogo

STARLINK-38197

AtivoComunicaçõesSSO
NORAD 100171·PAYLOAD·🇺🇸 United States

Lançado Jul 25, 2026 de Vandenberg Space Force Base

Loading…

Próximas Passagens (próximas 24 horas)

TLE

AtualizadoSource: Space-Track

Época: Sep 14, 2026, 14:59 UTC

1 A0171U 26171Z   26257.62434725  .00154920  00000-0  10202-2 0  9999
2 A0171  97.2830 291.0376 0001821  83.9498 276.1975 15.75202311  8058

Acompanhe STARLINK-38197 em tempo real com AllMySat

Download on the App Store